Location: Kermapucano
(48.0667°N, 3.3000°W)
Time: 20:18:01
(UTC+00:00)

Cosmos 1666 Rocket - Pass Details

Date: 29 November 2020
Orbit: 604 x 633 km, 82.5° (Epoch: 27 January)

Event Time Altitude Azimuth Distance (km) Brightness Sun altitude
Rises 06:57:47 0° 193° (SSW) 2,845 7.1 -7.0°
Reaches altitude 10° 06:59:59 10° 196° (SSW) 1,947 6.2 -6.7°
Maximum altitude 07:04:17 71° 280° (W) 646 3.5 -6.1°
Drops below altitude 10° 07:08:38 10° 6° (N) 1,973 5.9 -5.4°
Sets 07:10:53 0° 8° (N) 2,886 6.8 -5.1°
